Weather History for KCPS - January, 2012

Change the Weather History Date:

Monday, January 16, 2012

  Actual Average Record
Temperature  
Mean Temperature 52 °F -  
Max Temperature 64 °F 35 °F 64 °F (1952)
Min Temperature 41 °F 20 °F -2 °F (2009)
Degree Days  
Heating Degree Days 12    
Growing Degree Days 2 (Base 50)    
Moisture  
Dew Point 44 °F    
Average Humidity 66    
Maximum Humidity 79    
Minimum Humidity 56    
Precipitation  
Precipitation 0.00 in - - ()
Sea Level Pressure  
Sea Level Pressure 29.83 in    
Wind  
Wind Speed 10 mph (South)    
Max Wind Speed 18 mph    
Max Gust Speed 31 mph    
Visibility 10 miles    
Events Rain    
Averages and records for this station are not official NWS values.
T = Trace of Precipitation, MM = Missing Value Source: NWS Daily Summary

Daily Weather History Graph

Daily Weather History Graph

Search for Another Location

Airport or City:

Trip Planner

Search our weather history database for the weather conditions in past years. The results will help you decide how hot, cold, wet, or windy it might be!

Date:

Astronomy

Jan. 16, 2012 Rise Set
Actual Time 7:16 AM CST 5:04 PM CST
Civil Twilight 6:47 AM CST 5:33 PM CST
Nautical Twilight 6:15 AM CST 6:05 PM CST
Astronomical Twilight 5:43 AM CST 6:37 PM CST
Moon 12:26 AM CST (1/16) 11:17 AM CST (1/16)
Length of Visible Light 10h 45m
Length of Day
9h 47m
Last Quarter, 46% of the Moon is Illuminated
Jan 16
Last Quarter
Jan 23
New
Jan 30
First Quarter
Feb 7
Full
Feb 14
Last Quarter

Hourly Weather History & Observations

Time (CST) Temp. Windchill Dew Point Humidity Pressure Visibility Wind Dir Wind Speed Gust Speed Precip Events Conditions
12:53 AM 44.1 °F 40.1 °F 30.9 °F 60% 30.03 in 10.0 mi South 6.9 mph - N/A   Scattered Clouds
1:53 AM 45.0 °F 40.6 °F 30.9 °F 58% 30.01 in 10.0 mi South 8.1 mph - N/A   Clear
2:53 AM 46.9 °F - 32.0 °F 56% 29.98 in 10.0 mi SSE 8.1 mph - N/A   Clear
4:53 AM 42.1 °F 36.6 °F 32.0 °F 67% 29.94 in 10.0 mi SSE 9.2 mph - N/A   Clear
5:53 AM 44.1 °F 39.5 °F 34.0 °F 68% 29.93 in 10.0 mi SSE 8.1 mph - N/A   Clear
6:53 AM 41.0 °F 35.8 °F 33.1 °F 73% 29.91 in 10.0 mi SE 8.1 mph - N/A   Clear
7:53 AM 41.0 °F 35.2 °F 35.1 °F 79% 29.90 in 10.0 mi SE 9.2 mph - N/A   Clear
8:53 AM 50.0 °F - 39.9 °F 68% 29.88 in 10.0 mi South 8.1 mph - N/A   Clear
9:53 AM 55.9 °F - 45.0 °F 67% 29.88 in 10.0 mi South 10.4 mph 19.6 mph N/A   Clear
10:53 AM 60.1 °F - 46.9 °F 62% 29.86 in 10.0 mi SSW 10.4 mph 20.7 mph N/A   Partly Cloudy
11:53 AM 63.0 °F - 48.0 °F 58% 29.81 in 10.0 mi SSW 15.0 mph 21.9 mph N/A   Mostly Cloudy
12:53 PM 64.0 °F - 48.0 °F 56% 29.78 in 10.0 mi SSW 13.8 mph 24.2 mph N/A   Mostly Cloudy
1:53 PM 64.9 °F - 48.9 °F 56% 29.74 in 10.0 mi SSW 15.0 mph 26.5 mph N/A   Mostly Cloudy
2:53 PM 64.0 °F - 48.9 °F 58% 29.73 in 10.0 mi South 13.8 mph 28.8 mph N/A   Mostly Cloudy
3:53 PM 64.0 °F - 48.9 °F 58% 29.74 in 10.0 mi South 16.1 mph 25.3 mph N/A   Partly Cloudy
4:53 PM 63.0 °F - 50.0 °F 63% 29.74 in 10.0 mi South 18.4 mph 31.1 mph N/A   Partly Cloudy
5:53 PM 60.1 °F - 50.0 °F 69% 29.75 in 10.0 mi South 8.1 mph - N/A   Clear
6:53 PM 59.0 °F - 51.1 °F 75% 29.75 in 10.0 mi South 8.1 mph - N/A   Clear
7:53 PM 60.1 °F - 52.0 °F 75% 29.75 in 10.0 mi South 12.7 mph 18.4 mph N/A   Clear
9:53 PM 63.0 °F - 54.0 °F 72% 29.75 in 10.0 mi SSW 9.2 mph - N/A   Overcast
10:53 PM 62.1 °F - 54.0 °F 75% 29.73 in 10.0 mi South 6.9 mph - 0.00 in Rain Light Rain
11:53 PM 62.1 °F - 55.0 °F 78% 29.68 in 10.0 mi South 10.4 mph - 0.00 in   Mostly Cloudy